Regional Weather Roundup
Issued by NWS Bismarck, ND

Home | Current Version | Previous Version | Text Only | Print | Product List | Glossary On
Versions: 1 2 3 4 5 6 7 8 9 10 11 12 13 14 15 16 17 18 19 20 21 22 23 24 25 26 27 28 29 30 31 32 33 34 35 36 37 38 39 40 41 42 43 44 45 46 47 48 49 50
000
ASUS43 KBIS 230420
RWRBIS

NWR BROADCAST TEXT
NATIONAL WEATHER SERVICE BISMARCK ND
1100 PM CDT WED OCT 22 2014

NOTE: "FAIR" INDICATES FEW OR NO CLOUDS BELOW 12,000 FEET WITH NO
SIGNIFICANT WEATHER AND/OR OBSTRUCTIONS TO VISIBILITY.


CITY           SKY/WX    TMP DP  RH WIND       PRES   REMARKS
WILLISTON      CLEAR     44  32  62 W7        29.88R
MINOT          CLOUDY    55  41  59 SW8       29.83S
MINOT AFB      PTCLDY    52  44  73 SW8       29.82S
BISMARCK       CLEAR     45  35  68 SW3       29.92S
DICKINSON      CLEAR     44  31  60 SW8       29.91F
GARRISON         N/A     42  38  85 W7        29.87S
HETTINGER ARPT CLEAR     33  27  78 CALM      29.97S
JAMESTOWN      CLEAR     43  40  89 S6        29.89R
BEACH            N/A     39  30  70 SW3       29.94F
CARRINGTON     CLOUDY    50  46  87 SW6       29.88S
CROSBY         MIX PCPN  46  39  76 W12       29.84S
HARVEY         CLOUDY    54  43  66 SW7       29.86R
HAZEN          FAIR      41  34  75 SW5       29.91S
LINTON         FAIR      45  36  70 CALM      29.93S
MANDAN         FAIR      46  36  66 W10       29.92S
OAKES            N/A     46  46 100 S7        29.92S
RUGBY          FAIR      54  45  71 W10       29.82S
STANLEY        FAIR      45  39  81 W12       29.86R
TIOGA          FAIR      46  36  66 W12       29.89R
$$

CITY           SKY/WX    TMP DP  RH WIND       PRES   REMARKS
GRAND FORKS    PTCLDY    49  47  93 S8        29.85R
GRAND FORKS AF PTCLDY    49  49  99 SW10      29.85S
DEVILS LAKE    CLOUDY    54  43  66 SW9       29.83R
FARGO          PTCLDY    53  50  89 S10       29.90R
CANDO          CLOUDY    50  45  81 SW8       29.82S
CAVALIER       CLOUDY    50  48  93 S8        29.81R
GWINNER        CLEAR     52  52 100 SW12      29.93S
LANGDON        CLOUDY    50  46  87 SW12      29.80S
ROLLA          MOCLDY    52  45  76 W12       29.81R
WALHALLA       FAIR      50  50 100 S5        29.79S
$$

CITY           SKY/WX    TMP DP  RH WIND       PRES   REMARKS
ABERDEEN       CLEAR     47  45  93 SW7       29.96R
MOBRIDGE       CLEAR     48  37  65 NW7       29.94R
BUFFALO          N/A     45  27  49 W5        29.92S
RAPID CITY     CLEAR     37  31  78 NW6       30.02S
GLASGOW        CLEAR     45  31  58 S8        29.87R
SIDNEY         CLEAR     41  30  65 S7        29.91S
WOLF POINT     PTCLDY    36  30  79 NW5       29.88S
GLENDIVE       CLEAR     37  28  70 SW5       29.93S
MILES CITY     CLEAR     45  28  51 S8        29.94R
BAKER          CLEAR     43  28  55 CALM      29.96R
$$

CITY           SKY/WX    TMP DP  RH WIND       PRES   REMARKS
BILLINGS       CLEAR     56  23  27 W15       29.97S
GREAT FALLS    CLEAR     47  34  60 S13       29.88F
REGINA         CLEAR     39  39 100 SW6       29.79S
ESTEVAN        PTCLDY    41  39  93 SW8       29.82S
$$




USA.gov is the U.S. government's official web portal to all federal, state and local government web resources and services.